DW7210 Weather Reports


Display with metric or nautical units.
time (UTC)temp
F
wind
direction
speed
MPH
gust
MPH
rain 1hr
in
rain 24hr
in
rain mn
in
humidity
%
barometer
mb
20260508202415 85 23 3.0 6.0 0.00 0.00 0.00 11 1014.2
20260508201435 84 315 3.0 7.0 0.00 0.00 0.00 11 1014.3
20260508200415 84 0.0 2.0 0.00 0.00 0.00 12 1014.4
20260508195415 84 315 3.0 6.0 0.00 0.00 0.00 13 1014.5
20260508194415 84 270 2.0 4.0 0.00 0.00 0.00 14 1014.6
20260508193415 83 293 3.0 6.0 0.00 0.00 0.00 14 1014.8
20260508192415 84 158 3.0 6.0 0.00 0.00 0.00 15 1015.0
20260508191415 83 0.0 1.0 0.00 0.00 0.00 16 1014.8
20260508190415 82 293 5.0 7.0 0.00 0.00 0.00 16 1015.0
20260508185436 82 315 3.0 5.0 0.00 0.00 0.00 16 1015.1
20260508184455 81 0.0 0.0 0.00 0.00 0.00 17 1015.3
20260508183415 81 0.0 0.0 0.00 0.00 0.00 16 1015.3
20260508182415 82 0.0 1.0 0.00 0.00 0.00 16 1015.4
20260508181415 79 0.0 0.0 0.00 0.00 0.00 16 1015.3
20260508180415 79 293 6.0 8.0 0.00 0.00 0.00 16 1015.4
20260508175415 80 0.0 1.0 0.00 0.00 0.00 16 1015.5
20260508174415 79 68 1.0 4.0 0.00 0.00 0.00 16 1016.0
20260508173415 78 293 5.0 7.0 0.00 0.00 0.00 17 1016.1
20260508172435 78 0.0 0.0 0.00 0.00 0.00 17 1016.2
20260508171415 78 0 2.0 3.0 0.00 0.00 0.00 17 1016.1
20260508170415 78 0.0 0.0 0.00 0.00 0.00 18 1016.1
20260508165415 77 0.0 1.0 0.00 0.00 0.00 18 1016.1
20260508164415 77 0.0 0.0 0.00 0.00 0.00 19 1015.9
20260508163415 75 0.0 0.0 0.00 0.00 0.00 19 1015.7
20260508162415 75 0.0 0.0 0.00 0.00 0.00 20 1015.7
20260508161435 73 0.0 1.0 0.00 0.00 0.00 20 1015.9
20260508160415 72 293 3.0 5.0 0.00 0.00 0.00 20 1015.6
20260508155415 72 0.0 3.0 0.00 0.00 0.00 22 1015.7
20260508154415 71 315 2.0 4.0 0.00 0.00 0.00 21 1015.6
20260508153415 71 315 3.0 6.0 0.00 0.00 0.00 24 1015.7
20260508152415 70 293 1.0 2.0 0.00 0.00 0.00 26 1015.5
20260508151415 70 293 2.0 5.0 0.00 0.00 0.00 28 1015.9
20260508150415 69 293 2.0 3.0 0.00 0.00 0.00 29 1015.5
20260508145415 69 293 2.0 4.0 0.00 0.00 0.00 29 1015.5
20260508144415 69 0.0 0.0 0.00 0.00 0.00 29 1015.9
20260508143415 70 0.0 0.0 0.00 0.00 0.00 28 1016.2
20260508142415 71 338 1.0 2.0 0.00 0.00 0.00 27 1016.1
20260508141415 69 0.0 0.0 0.00 0.00 0.00 29 1016.1
20260508140415 68 0.0 0.0 0.00 0.00 0.00 32 1016.2
20260508135455 67 0.0 0.0 0.00 0.00 0.00 33 1015.8
20260508134415 66 0.0 0.0 0.00 0.00 0.00 34 1016.1
20260508133415 65 0.0 0.0 0.00 0.00 0.00 36 1015.9
20260508132415 62 0.0 0.0 0.00 0.00 0.00 37 1015.4
20260508131415 59 0.0 0.0 0.00 0.00 0.00 39 1015.3
20260508130415 60 68 3.0 5.0 0.00 0.00 0.00 40 1015.3
20260508125435 62 315 3.0 5.0 0.00 0.00 0.00 33 1015.4
20260508124415 63 0.0 0.0 0.00 0.00 0.00 32 1015.0
20260508123415 64 68 3.0 3.0 0.00 0.00 0.00 29 1015.2
20260508122415 63 68 3.0 3.0 0.00 0.00 0.00 31 1014.8
20260508121415 62 68 1.0 2.0 0.00 0.00 0.00 32 1014.8
20260508120415 62 0.0 0.0 0.00 0.00 0.00 33 1014.8
20260508115435 62 0.0 0.0 0.00 0.00 0.00 33 1014.7
20260508114417 62 0.0 0.0 0.00 0.00 0.00 34 1014.7
20260508113417 62 0.0 0.0 0.00 0.00 0.00 34 1014.8
20260508112417 62 0.0 0.0 0.00 0.00 0.00 33 1014.9
20260508111417 63 0.0 0.0 0.00 0.00 0.00 33 1015.0
20260508110417 63 0.0 0.0 0.00 0.00 0.00 33 1015.2
20260508105417 62 0.0 0.0 0.00 0.00 0.00 35 1015.2
20260508104417 62 0.0 0.0 0.00 0.00 0.00 36 1015.1
20260508103417 62 45 2.0 4.0 0.00 0.00 0.00 38 1015.2
20260508102417 61 0.0 0.0 0.00 0.00 0.00 38 1015.0
20260508101417 62 23 3.0 5.0 0.00 0.00 0.00 36 1014.9
20260508100417 62 0 2.0 3.0 0.00 0.00 0.00 33 1015.1
20260508095417 63 0 3.0 5.0 0.00 0.00 0.00 31 1015.0
20260508094417 64 68 2.0 4.0 0.00 0.00 0.00 30 1014.9
20260508093417 65 315 2.0 3.0 0.00 0.00 0.00 29 1015.0
20260508092417 65 0.0 0.0 0.00 0.00 0.00 30 1014.9
20260508091417 64 0.0 0.0 0.00 0.00 0.00 33 1014.7
20260508090417 65 0.0 0.0 0.00 0.00 0.00 32 1015.1
20260508085417 66 0.0 0.0 0.00 0.00 0.00 31 1015.3
20260508084437 67 0.0 0.0 0.00 0.00 0.00 29 1015.3
20260508083417 68 0.0 0.0 0.00 0.00 0.00 28 1015.6
20260508082417 69 0.0 0.0 0.00 0.00 0.00 29 1015.7
20260508081417 68 68 2.0 4.0 0.00 0.00 0.00 30 1015.4
20260508080417 68 0.0 0.0 0.00 0.00 0.00 31 1015.6
20260508075417 68 0.0 1.0 0.00 0.00 0.00 30 1015.7
20260508074437 68 0.0 0.0 0.00 0.00 0.00 30 1015.8
20260508073417 68 158 2.0 2.0 0.00 0.00 0.00 30 1015.8
20260508072417 69 225 4.0 6.0 0.00 0.00 0.00 30 1015.9
20260508071417 69 135 4.0 7.0 0.00 0.00 0.00 30 1015.7
20260508070417 68 135 2.0 5.0 0.00 0.00 0.00 30 1015.7
20260508065417 69 158 2.0 4.0 0.00 0.00 0.00 28 1015.7
20260508064417 70 135 5.0 7.0 0.00 0.00 0.00 29 1016.5
20260508063437 70 113 4.0 6.0 0.00 0.00 0.00 28 1016.3
20260508062417 69 68 2.0 4.0 0.00 0.00 0.00 30 1016.1
20260508061417 69 158 5.0 9.0 0.00 0.00 0.00 30 1016.1
20260508060417 69 158 1.0 2.0 0.00 0.00 0.00 28 1015.9
20260508055415 69 158 3.0 4.0 0.00 0.00 0.00 29 1015.8
20260508054415 69 158 4.0 6.0 0.00 0.00 0.00 26 1015.6
20260508053415 70 135 3.0 4.0 0.00 0.00 0.00 21 1015.6
20260508052455 72 180 2.0 4.0 0.00 0.00 0.00 19 1015.9
20260508051415 71 135 3.0 5.0 0.00 0.00 0.00 18 1015.8
20260508050415 71 135 2.0 4.0 0.00 0.00 0.00 19 1015.8
20260508045415 71 135 4.0 5.0 0.00 0.00 0.00 19 1015.7
20260508044415 71 113 3.0 4.0 0.00 0.00 0.00 19 1015.0
20260508043415 70 0.0 0.0 0.00 0.00 0.00 19 1015.0
20260508042415 70 0.0 0.0 0.00 0.00 0.00 20 1015.1
20260508041415 70 0.0 0.0 0.00 0.00 0.00 20 1015.1
20260508040415 71 0.0 0.0 0.00 0.00 0.00 19 1015.1
20260508035415 71 0.0 0.0 0.00 0.00 0.00 19 1015.0
20260508034415 71 0.0 0.0 0.00 0.00 0.00 18 1014.9
20260508033415 71 0.0 0.0 0.00 0.00 0.00 18 1014.7
20260508032417 71 0.0 0.0 0.00 0.00 0.00 18 1014.5
20260508031417 71 0.0 0.0 0.00 0.00 0.00 18 1013.8
20260508030437 72 0.0 0.0 0.00 0.00 0.00 19 1013.7
20260508025417 72 0.0 0.0 0.00 0.00 0.00 18 1013.7
20260508024417 72 0.0 0.0 0.00 0.00 0.00 17 1013.6
20260508023417 73 0.0 0.0 0.00 0.00 0.00 17 1013.5
20260508022417 74 0.0 0.0 0.00 0.00 0.00 17 1013.5
20260508021417 74 0.0 0.0 0.00 0.00 0.00 16 1012.7
20260508020417 75 0.0 0.0 0.00 0.00 0.00 16 1013.0
20260508015417 76 0.0 1.0 0.00 0.00 0.00 15 1012.9
20260508014417 76 0.0 0.0 0.00 0.00 0.00 16 1012.4
20260508013417 77 0.0 0.0 0.00 0.00 0.00 15 1012.6
20260508012437 78 0.0 0.0 0.00 0.00 0.00 15 1012.6
20260508011417 79 135 3.0 5.0 0.00 0.00 0.00 14 1012.6
20260508010417 80 135 1.0 5.0 0.00 0.00 0.00 13 1012.8
20260508005418 81 0.0 1.0 0.00 0.00 0.00 13 1013.3
20260508004417 79 0.0 0.0 0.00 0.00 0.00 13 1013.0
20260508003417 80 113 1.0 4.0 0.00 0.00 0.00 13 1013.3
20260508002437 80 0.0 0.0 0.00 0.00 0.00 13 1013.3
20260508001417 80 158 4.0 5.0 0.00 0.00 0.00 13 1013.4
20260508000419 81 225 6.0 7.0 0.00 0.00 0.00 13 1013.4
20260507235417 81 135 4.0 8.0 0.00 0.00 0.00 14 1013.5
20260507234417 80 0.0 3.0 0.00 0.00 0.00 14 1013.7
20260507233417 81 270 1.0 3.0 0.00 0.00 0.00 13 1014.0
20260507232417 81 293 1.0 4.0 0.00 0.00 0.00 13 1014.1
20260507231457 81 293 4.0 7.0 0.00 0.00 0.00 13 1014.3
20260507230417 81 0.0 0.0 0.00 0.00 0.00 14 1014.3
20260507225417 81 248 2.0 6.0 0.00 0.00 0.00 15 1014.4
20260507224417 81 0.0 0.0 0.00 0.00 0.00 15 1014.8
20260507223417 80 0.0 0.0 0.00 0.00 0.00 15 1014.7
20260507222417 80 158 7.0 10.0 0.00 0.00 0.00 15 1014.8
20260507221437 81 158 6.0 8.0 0.00 0.00 0.00 14 1014.8
20260507220415 80 0.0 0.0 0.00 0.00 0.00 14 1014.9
20260507215417 80 180 3.0 5.0 0.00 0.00 0.00 15 1015.1
20260507214417 80 135 4.0 5.0 0.00 0.00 0.00 15 1015.4
20260507213417 80 135 6.0 10.0 0.00 0.00 0.00 15 1015.6
20260507212417 79 225 5.0 12.0 0.00 0.00 0.00 15 1015.4
20260507211417 80 0.0 1.0 0.00 0.00 0.00 15 1015.5
20260507210417 79 135 6.0 7.0 0.00 0.00 0.00 15 1015.3
20260507205417 79 135 6.0 9.0 0.00 0.00 0.00 16 1015.5
20260507204417 79 113 4.0 7.0 0.00 0.00 0.00 17 1015.9
20260507203437 78 158 4.0 8.0 0.00 0.00 0.00 17 1015.7